Change the Weather History Date:

Tuesday, October 30, 2012

  Actual Average Record
Temperature  
Mean Temperature 62 °F -  
Max Temperature 78 °F 62 °F 79 °F (2008)
Min Temperature 46 °F 43 °F 37 °F (1996)
Degree Days  
Heating Degree Days 3    
Growing Degree Days 12 (Base 50)    
Moisture  
Dew Point 36 °F    
Average Humidity 46    
Maximum Humidity 63    
Minimum Humidity 25    
Precipitation  
Precipitation 0.00 in - - ()
Sea Level Pressure  
Sea Level Pressure 29.97 in    
Wind  
Wind Speed 6 mph (SSW)    
Max Wind Speed 13 mph    
Max Gust Speed -    
Visibility 10 miles    
Events      
Averages and records for this station are not official NWS values.
T = Trace of Precipitation, MM = Missing Value Source: NWS Daily Summary

Daily Weather History Graph

Daily Weather History Graph

Search for Another Location

Airport or City:

Trip Planner

Search our weather history database for the weather conditions in past years. The results will help you decide how hot, cold, wet, or windy it might be!

Date:

Astronomy

Oct. 30, 2012 Rise Set
Actual Time 7:50 AM CDT 6:32 PM CDT
Civil Twilight 7:24 AM CDT 6:58 PM CDT
Nautical Twilight 6:53 AM CDT 7:29 PM CDT
Astronomical Twilight 6:23 AM CDT 7:59 PM CDT
Moon 7:04 PM CDT (10/30) 8:37 AM CDT (10/30)
Length of Visible Light 11h 34m
Length of Day
10h 41m
Full, 99% of the Moon is Illuminated
Oct 30
Full
Nov 6
Last Quarter
Nov 13
New
Nov 20
First Quarter
Nov 28
Full

Hourly Weather History & Observations

Time (CDT) Temp. Windchill Dew Point Humidity Pressure Visibility Wind Dir Wind Speed Gust Speed Precip Events Conditions
12:54 AM 46.9 °F - 30.9 °F 54% 30.07 in 10.0 mi South 3.5 mph - N/A   Clear
1:54 AM 46.9 °F - 30.9 °F 54% 30.06 in 10.0 mi South 3.5 mph - N/A   Clear
2:54 AM 48.0 °F - 30.9 °F 52% 30.05 in 10.0 mi SE 4.6 mph - N/A   Clear
3:54 AM 46.0 °F 43.9 °F 33.1 °F 61% 30.04 in 10.0 mi South 4.6 mph - N/A   Mostly Cloudy
4:54 AM 50.0 °F - 33.1 °F 52% 30.02 in 10.0 mi South 8.1 mph - N/A   Mostly Cloudy
5:54 AM 50.0 °F - 33.1 °F 52% 30.02 in 10.0 mi South 6.9 mph - N/A   Scattered Clouds
6:54 AM 48.9 °F - 33.1 °F 54% 30.01 in 10.0 mi South 6.9 mph - N/A   Scattered Clouds
7:54 AM 46.9 °F - 33.1 °F 59% 30.01 in 10.0 mi South 4.6 mph - N/A   Clear
8:54 AM 50.0 °F - 34.0 °F 54% 30.00 in 10.0 mi SSW 6.9 mph - N/A   Clear
9:54 AM 55.0 °F - 36.0 °F 49% 29.98 in 10.0 mi SSW 10.4 mph - N/A   Clear
10:54 AM 61.0 °F - 36.0 °F 39% 29.96 in 10.0 mi SSW 12.7 mph - N/A   Partly Cloudy
11:54 AM 66.9 °F - 37.9 °F 34% 29.95 in 10.0 mi SW 10.4 mph - N/A   Partly Cloudy
12:54 PM 70.0 °F - 39.0 °F 32% 29.93 in 10.0 mi SW 6.9 mph - N/A   Clear
1:54 PM 73.9 °F - 39.0 °F 28% 29.89 in 10.0 mi West 9.2 mph - N/A   Clear
2:54 PM 77.0 °F - 39.9 °F 26% 29.86 in 10.0 mi WNW 5.8 mph - N/A   Clear
3:54 PM 78.1 °F - 39.0 °F 25% 29.86 in 10.0 mi WNW 8.1 mph - N/A   Clear
4:54 PM 77.0 °F - 39.9 °F 26% 29.87 in 10.0 mi North 9.2 mph - N/A   Clear
5:54 PM 73.0 °F - 39.9 °F 30% 29.87 in 10.0 mi North 9.2 mph - N/A   Clear
6:54 PM 66.9 °F - 39.9 °F 37% 29.90 in 10.0 mi NNE 8.1 mph - N/A   Clear
7:54 PM 62.1 °F - 39.0 °F 43% 29.94 in 10.0 mi North - - N/A   Clear
8:54 PM 57.0 °F - 39.9 °F 53% 29.96 in 10.0 mi NE 6.9 mph - N/A   Clear
9:54 PM 54.0 °F - 39.9 °F 59% 29.99 in 10.0 mi NE 8.1 mph - N/A   Clear
10:54 PM 51.1 °F - 39.0 °F 63% 29.99 in 10.0 mi NNE 5.8 mph - N/A   Clear
11:54 PM 50.0 °F - 37.0 °F 61% 29.98 in 10.0 mi NE 3.5 mph - N/A   Clear